Zurück zum Katalog

ONEWEB-0689

AktivKommunikationPO
NORAD 61597·PAYLOAD·🇬🇧 United Kingdom

Gestartet Oct 20, 2024 von Vandenberg Space Force Base

Loading…

Nächste Überflüge (nächste 24 Stunden)

TLE

AktuellSource: CelesTrak SupGP

Epoche: Sep 14, 2026, 11:32 UTC

1 61597C 24188D   26257.48109211 -.00002684  00000+0 -75836-2 0  2578
2 61597  87.8969   3.3049 0001557 109.9254 359.1192 13.11414645    15

Verfolge ONEWEB-0689 in Echtzeit mit AllMySat

Download on the App Store